Location: La Trinit�
(48.1620°N, 3.4512°W)
Time: 15:57:59
(UTC+00:00)

COSMOS 2406 - Pass Details

Date: 08 May 2021
Orbit: 844 x 862 km, 71.0° (Epoch: 24 June)

Event Time Altitude Azimuth Distance (km) Brightness Sun altitude
Rises 22:15:48 0° 329° (NNW) 3,414 8.0 -19.7°
Reaches altitude 10° 22:18:17 10° 326° (NNW) 2,475 6.8 -19.9°
Maximum altitude 22:23:52 61° 248° (WSW) 957 3.4 -20.3°
Enters shadow 22:26:05 36° 184° (S) 1,323 3.8 -20.5°
